Weather in Kongsberg

Norway     59°40′00″N   9°39′01″E
В апреле 2022 года жителям России запретили посещать сайт meteo.paraplan.net по решению Генеральной прокуратуры. Аудитория сайта уменьшилась в 10 раз. Владельцы сайта не видят смысла в поддержке погодного сервера в таких условиях. Сайт будет закрыт в октябре.
temp.,
°C
wind,
m/s
gust,
m/s
humid.,
%
clouds,
%
prec.,
mm/h
press.,
hPa
HPBL,
m
25 september, sun
sun2523:00+8nw128795 0.0 101567
02:00+6nw119313 0.0 101512
05:00+7nw118571 0.0 101314
08:00+5wnw119123 0.0 101316
11:00+11s11647 0.0 1011617
14:00+14ssw354853 0.0 10061645
17:00+13ssw3653100 0.0 10031516
20:00+10ssw4969100 0.0 1001609
26 september, mon
mon2623:00+6s3792100 1.6 999445
02:00+6s3995100 5.1 997845
05:00+7se2898100 2.3 994723
08:00+8ese2699100 3.8 992477
11:00+9se41197100 5.5 991993
14:00+9se31097100 10.1 990853
17:00+9se2698100 6.7 989403
20:00+9ese119980 9.8 99085
27 september, tue
tue2723:00+7se229991 0.8 991111
02:00+7e1298100 0.8 99299
05:00+7ne0095100 2.0 99321
08:00+7nw1197100 3.8 99461
11:00+7nnw1398100 3.9 995256
14:00+8ene2999100 9.6 996780
17:00+8ene2997100 4.6 998766
20:00+9e51295100 9.8 9991360
28 september, wed
wed2823:00+9ene31097100 5.5 10001000
02:00+9ene31097100 9.4 1001869
05:00+9ene31098100 4.7 10011078
08:00+8ne3998100 8.0 1003851
11:00+8ne51193100 1.3 1004994
14:00+9ne61088100 1.6 10051012
17:00+9nne510799 0.1 10051127
20:00+7nne4128169 0.2 1005800
29 september, thu
thu2923:00+7nne4108588 0.1 1006870
02:00+6nne41086100 0.2 10051138
05:00+5n41091100 0.4 1005999
08:00+5n5119184 0.8 1004897
11:00+5n51191100 0.1 1004890
14:00+5n51194100 1.7 1003959
17:00+6n41195100 0.3 1004812
20:00+5nnw41095100 1.9 1005953